This is the latest recevied weather packets stored in our database for station/object N8JE-13. If no packets are shown the sender has not sent any weather packets the latest 1 day(s).
| Time | Temp. | Humidity | Pressure | Rain* | Wind** | Luminosity | Snow |
|---|---|---|---|---|---|---|---|
| 1836274414 | 22.22° C | 74% | 1017.4 hPa | 0 mm | 1.34 m/s, 69° | - | - |
| 1836274264 | 22.22° C | 75% | 1017.4 hPa | 0 mm | 1.34 m/s, 91° | - | - |
| 1778041851 | 8.89° C | 94% | 1007.2 hPa | 0 mm | 0.89 m/s, 34° | - | - |
| 1778041551 | 8.89° C | 94% | 1007.3 hPa | 0 mm | 0.89 m/s, 8° | - | - |
| 1778041251 | 8.89° C | 94% | 1007.1 hPa | 0 mm | 1.34 m/s, 48° | - | - |
| 1778040951 | 8.89° C | 94% | 1007 hPa | 0 mm | 2.24 m/s, 55° | - | - |
| 1778040651 | 8.89° C | 94% | 1006.9 hPa | 0 mm | 2.68 m/s, 48° | - | - |
| 1778040350 | 8.89° C | 94% | 1006.8 hPa | 0 mm | 0.45 m/s, 78° | - | - |
| 1778040050 | 9.44° C | 94% | 1006.8 hPa | 0 mm | 0.45 m/s, 67° | - | - |
| 1778039750 | 9.44° C | 94% | 1006.6 hPa | 0.51 mm | 0.45 m/s, 101° | - | - |
| 1778039451 | 9.44° C | 94% | 1006.7 hPa | 0.76 mm | 0.45 m/s, 151° | - | - |
| 1778039151 | 9.44° C | 94% | 1006.7 hPa | 1.02 mm | 0 m/s | - | - |
| 1778038850 | 9.44° C | 94% | 1006.7 hPa | 1.27 mm | 0.89 m/s, 64° | - | - |
| 1778038552 | 9.44° C | 94% | 1006.7 hPa | 1.78 mm | 0.45 m/s, 62° | - | - |
| 1778038252 | 9.44° C | 95% | 1006.7 hPa | 2.29 mm | 0.45 m/s, 52° | - | - |
| 1778037952 | 9.44° C | 94% | 1006.6 hPa | 2.79 mm | 0.89 m/s, 59° | - | - |
| 1778037652 | 9.44° C | 94% | 1006.8 hPa | 3.3 mm | 0.45 m/s, 42° | - | - |
| 1778037352 | 9.44° C | 94% | 1006.8 hPa | 3.56 mm | 0.89 m/s, 61° | - | - |
| 1778037052 | 9.44° C | 95% | 1006.7 hPa | 3.56 mm | 0.45 m/s, 51° | - | - |
| 1778036752 | 9.44° C | 95% | 1006.8 hPa | 3.56 mm | 0.45 m/s, 43° | - | - |
| 1778036452 | 9.44° C | 94% | 1007 hPa | 3.3 mm | 1.34 m/s, 47° | - | - |
| 1778036152 | 9.44° C | 94% | 1007.2 hPa | 3.3 mm | 1.34 m/s, 43° | - | - |
| 1778035852 | 9.44° C | 94% | 1007.5 hPa | 3.3 mm | 1.34 m/s, 23° | - | - |
| 1778035552 | 9.44° C | 94% | 1007.5 hPa | 3.3 mm | 0.89 m/s, 356° | - | - |
| 1778035252 | 9.44° C | 94% | 1007.6 hPa | 3.3 mm | 0.89 m/s, 20° | - | - |
* Rain latest hour (hover to see other rain measurements)
** Current wind speed in m/s (hover to see current wind gust speed)